Weather in Olshanka

Russia / Belgorod Oblast     51°00′32″N   37°39′56″E
temp.,
°C
wind,
m/s
gust,
m/s
humid.,
%
clouds,
%
prec.,
mm/h
press.,
hPa
HPBL,
m
8 march, mon
mon800:00−1w9159197 0.4 1007959
03:00−1wsw6138897 0.4 1007652
06:00−1wsw7139299 0.1 1006709
09:00−1wsw7129099 0.4 1006918
12:000nw4688100 1.3 1007528
15:000wnw5771100 1.8 10071018
18:00−1nw367668 0.0 1008201
21:00−3nw268438 0.0 1010243
9 march, tue
tue900:00−3nw358394 0.0 1010307
03:00−4wnw248685 0.0 1011214
06:00−5nw4689100 0.1 1012394
09:00−6nnw577998 0.1 1014530
12:00−5nnw566842 0.0 1015767
15:00−5nnw566971 0.1 1017957
18:00−7nnw6772100 0.1 1019915
21:00−9nnw587293 0.1 1021700
10 march, wed
wed1000:00−9nnw47740 0.0 1023621
03:00−10nw467834 0.0 1024525
06:00−11nnw478124 0.0 1026473
09:00−12nnw467314 0.0 1027429
12:00−9nnw45530 0.0 1028750
15:00−7nnw45516 0.0 1028887
18:00−8n346488 0.0 1028670
21:00−9ne347790 0.0 1029449
11 march, thu
thu1100:00−12ne457092 0.0 1030392
03:00−13ne346396 0.0 1032373
06:00−14ene356579 0.0 1032367
09:00−13e355841 0.0 1034399
12:00−10e44390 0.0 1034712
15:00−8ese33360 0.0 1033983
18:00−9ese33410 0.0 1032869
21:00−9ese34490 0.0 1033494
12 march, fri
fri1200:00−10se35560 0.0 1034476
03:00−11se36590 0.0 1034453
06:00−12sse35650 0.0 1034342
09:00−11sse57550 0.0 1034455
12:00−7sse57390 0.0 1033727
15:00−5sse573633 0.0 1032887
18:00−6sse5837100 0.0 1031891
21:00−6sse61139100 0.0 1031718